Location: Châteauvieux
(47.2310°N, 1.3828°E)
Time: 23:27:38
(UTC+00:00)

NOSS 3 (A) - Pass Details

Date: 15 May 2026
Orbit: 160 x 953 km, 63.3° (Epoch: 23 April)

Event Time Altitude Azimuth Distance (km) Brightness Sun altitude
Rises 21:24:51 0° 317° (NW) 1,821 9.8 -16.1°
Reaches altitude 10° 21:26:29 10° 315° (NW) 1,108 8.2 -16.2°
Maximum altitude 21:28:52 67° 231° (SW) 359 4.3 -16.5°
Enters shadow 21:29:11 58° 186° (S) 393 4.3 -16.5°
